This is the latest recevied weather packets stored in our database for station/object W4MLN-3. If no packets are shown the sender has not sent any weather packets the latest 10 day(s).
| Time | Temp. | Humidity | Pressure | Rain* | Wind** | Luminosity | Snow |
|---|---|---|---|---|---|---|---|
| 1787436903 | 26.67° C | 57% | 1015.9 hPa | 0 mm | - | - | - |
| 1787436603 | 26.67° C | 58% | 1015.7 hPa | 0 mm | - | - | - |
| 1787436303 | 26.67° C | 56% | 1015.7 hPa | 0 mm | - | - | - |
| 1787436003 | 26.67° C | 54% | 1015.6 hPa | 0 mm | - | - | - |
| 1787435703 | 27.22° C | 56% | 1015.6 hPa | 0 mm | - | - | - |
| 1787435403 | 27.22° C | 55% | 1015.6 hPa | 0 mm | - | - | - |
| 1787435103 | 27.78° C | 55% | 1015.7 hPa | 0 mm | - | - | - |
| 1787434803 | 27.78° C | 54% | 1015.6 hPa | 0 mm | - | - | - |
| 1787434503 | 28.33° C | 53% | 1015.5 hPa | 0 mm | - | - | - |
| 1787434203 | 28.33° C | 54% | 1015.6 hPa | 0 mm | - | - | - |
| 1787433903 | 28.33° C | 54% | 1015.6 hPa | 0 mm | - | - | - |
| 1787433603 | 28.33° C | 53% | 1015.7 hPa | 0 mm | - | - | - |
| 1787433327 | 28.33° C | 53% | 1015.7 hPa | 0 mm | - | - | - |
| 1787433003 | 28.33° C | 52% | 1015.8 hPa | 0 mm | - | - | - |
| 1787432703 | 28.33° C | 51% | 1015.8 hPa | 0 mm | - | - | - |
| 1787432403 | 28.89° C | 52% | 1015.9 hPa | 0 mm | - | - | - |
| 1787432124 | 28.89° C | 51% | 1015.9 hPa | 0 mm | - | - | - |
| 1787431803 | 28.33° C | 54% | 1016 hPa | 0 mm | - | - | - |
| 1787431503 | 28.33° C | 54% | 1016.1 hPa | 0 mm | - | - | - |
| 1787431203 | 28.33° C | 55% | 1016 hPa | 0 mm | - | - | - |
| 1787430903 | 28.33° C | 55% | 1016.1 hPa | 0 mm | - | - | - |
| 1787430645 | 27.78° C | 54% | 1016 hPa | 0 mm | - | - | - |
| 1787430303 | 27.78° C | 56% | 1016.1 hPa | 0 mm | - | - | - |
| 1787430003 | 27.78° C | 55% | 1016.1 hPa | 0 mm | - | - | - |
| 1787429703 | 27.78° C | 55% | 1016.3 hPa | 0 mm | - | - | - |
* Rain latest hour (hover to see other rain measurements)
** Current wind speed in m/s (hover to see current wind gust speed)